Dutch Harbor, AK

5:42 AM AKDT on April 28, 2017 (GMT -0800)
Unalaska

Weather History for PADU - March, 2014

Change the Weather History Date:

Friday, March 7, 2014

  Actual Average Record
Temperature  
Mean Temperature 36 °F -  
Max Temperature 37 °F 41 °F 96 °F (2009)
Min Temperature 35 °F 29 °F 22 °F (1993)
Degree Days  
Heating Degree Days 29    
Moisture  
Dew Point 31 °F    
Average Humidity 83    
Maximum Humidity 93    
Minimum Humidity 75    
Precipitation  
Precipitation 0.11 in - - ()
Sea Level Pressure  
Sea Level Pressure 29.40 in    
Wind  
Wind Speed 4 mph (ENE)    
Max Wind Speed 10 mph    
Max Gust Speed -    
Visibility 10 miles    
Events Rain , Snow    
Averages and records for this station are not official NWS values.
T = Trace of Precipitation, MM = Missing Value Source: NWS Daily Summary

Daily Weather History Graph

Daily Weather History Graph

Search for Another Location

Airport or City:

Trip Planner

Search our weather history database for the weather conditions in past years. The results will help you decide how hot, cold, wet, or windy it might be!

Date:

Astronomy

Mar. 07, 2014 Rise Set
Actual Time 8:39 AM AKST 7:55 PM AKST
Civil Twilight 8:04 AM AKST 8:30 PM AKST
Nautical Twilight 7:23 AM AKST 9:11 PM AKST
Astronomical Twilight 6:42 AM AKST 9:53 PM AKST
Moon 11:47 AM AKST (3/7) 3:06 AM AKST (3/7)
Length of Visible Light 12h 26m
Length of Day
11h 16m
Waxing Crescent, 43% of the Moon is Illuminated
Mar 7
Waxing Crescent
Mar 8
First Quarter
Mar 16
Full
Mar 23
Last Quarter
Mar 30
New

Hourly Weather History & Observations

Time (AKST) Temp. Windchill Dew Point Humidity Pressure Visibility Wind Dir Wind Speed Gust Speed Precip Events Conditions
12:56 AM 36.0 °F 31.1 °F 30.9 °F 82% 29.43 in 10.0 mi North 5.8 mph - N/A   Overcast
1:44 AM 35.6 °F 32.8 °F 30.2 °F 81% 29.41 in 10.0 mi NE 3.5 mph - N/A   Overcast
1:56 AM 36.0 °F 31.1 °F 30.9 °F 82% 29.43 in 10.0 mi NE 5.8 mph - 0.00 in   Overcast
2:35 AM 35.6 °F 30.7 °F 30.2 °F 81% 29.41 in 10.0 mi NNE 5.8 mph - 0.00 in   Overcast
2:56 AM 36.0 °F 32.1 °F 30.0 °F 79% 29.43 in 10.0 mi NE 4.6 mph - 0.00 in   Mostly Cloudy
3:54 AM 35.6 °F 32.8 °F 30.2 °F 81% 29.41 in 10.0 mi SSE 3.5 mph - N/A   Overcast
3:56 AM 35.1 °F - 30.9 °F 85% 29.42 in 10.0 mi Calm Calm - N/A   Overcast
4:56 AM 36.0 °F 33.3 °F 32.0 °F 86% 29.42 in 10.0 mi WNW 3.5 mph - N/A   Overcast
5:56 AM 36.0 °F 31.1 °F 30.9 °F 82% 29.41 in 10.0 mi NNE 5.8 mph - N/A   Overcast
5:59 AM 35.6 °F 31.7 °F 30.2 °F 81% 29.40 in 10.0 mi NE 4.6 mph - 0.00 in Rain , Snow Light Rain
6:56 AM 36.0 °F - 32.0 °F 86% 29.42 in 10.0 mi Calm Calm - 0.00 in Rain , Snow Light Rain
7:56 AM 36.0 °F 32.1 °F 30.9 °F 82% 29.41 in 10.0 mi ENE 4.6 mph - 0.00 in   Overcast
8:12 AM 35.6 °F - 30.2 °F 81% 29.40 in 10.0 mi Calm Calm - N/A   Overcast
8:44 AM 35.6 °F 30.7 °F 30.2 °F 81% 29.40 in 10.0 mi NE 5.8 mph - N/A   Mostly Cloudy
8:56 AM 36.0 °F 32.1 °F 30.0 °F 79% 29.42 in 10.0 mi NE 4.6 mph - N/A   Mostly Cloudy
9:29 AM 35.6 °F - 30.2 °F 81% 29.40 in 10.0 mi Calm Calm - N/A   Mostly Cloudy
9:54 AM 35.6 °F 31.7 °F 30.2 °F 81% 29.40 in 10.0 mi SSE 4.6 mph - 0.00 in Rain , Snow Light Rain
9:56 AM 36.0 °F 32.1 °F 30.9 °F 82% 29.42 in 10.0 mi SSE 4.6 mph - 0.00 in Rain , Snow Light Rain
9:58 AM 35.6 °F 31.7 °F 30.2 °F 81% 29.40 in 10.0 mi SSE 4.6 mph - 0.00 in Rain , Snow Light Rain
10:56 AM 36.0 °F - 30.9 °F 82% 29.42 in 10.0 mi Calm Calm - 0.00 in Rain , Snow Light Rain
11:47 AM 37.4 °F - 32.0 °F 81% 29.41 in 10.0 mi Calm Calm - 0.00 in   Overcast
11:56 AM 37.0 °F - 32.0 °F 82% 29.43 in 10.0 mi Calm Calm - 0.00 in   Overcast
12:48 PM 37.4 °F - 32.0 °F 81% 29.40 in 10.0 mi Calm Calm - N/A   Mostly Cloudy
12:56 PM 37.9 °F - 32.0 °F 79% 29.42 in 10.0 mi Calm Calm - N/A   Mostly Cloudy
1:08 PM 37.4 °F 34.9 °F 32.0 °F 81% 29.40 in 10.0 mi WNW 3.5 mph - N/A   Mostly Cloudy
1:47 PM 37.4 °F - 30.2 °F 75% 29.40 in 10.0 mi Calm Calm - 0.00 in Rain Light Rain
1:56 PM 37.9 °F - 30.9 °F 76% 29.41 in 10.0 mi Calm Calm - 0.00 in Rain Light Rain
2:01 PM 37.4 °F - 30.2 °F 75% 29.40 in 10.0 mi Calm Calm - 0.00 in Rain Light Rain
2:32 PM 37.4 °F 33.8 °F 32.0 °F 81% 29.39 in 10.0 mi SE 4.6 mph - 0.00 in Rain Light Rain
2:33 PM 37.4 °F 33.8 °F 32.0 °F 81% 29.39 in 10.0 mi SE 4.6 mph - 0.00 in Rain Light Rain
2:34 PM 37.4 °F 33.8 °F 32.0 °F 81% 29.39 in 10.0 mi SE 4.6 mph - 0.00 in Rain Light Rain
2:35 PM 37.4 °F 32.8 °F 32.0 °F 81% 29.39 in 10.0 mi SE 5.8 mph - 0.00 in Rain , Snow Light Snow
2:56 PM 37.0 °F - 32.0 °F 82% 29.40 in 8.0 mi Calm Calm - 0.00 in Rain , Snow Light Snow
3:08 PM 35.6 °F 32.8 °F 32.0 °F 87% 29.38 in 5.0 mi NE 3.5 mph - 0.01 in Rain , Snow Light Snow
3:27 PM 35.6 °F 31.7 °F 33.8 °F 93% 29.38 in 5.0 mi West 4.6 mph - 0.02 in Rain , Snow Light Snow
3:38 PM 35.6 °F 32.8 °F 33.8 °F 93% 29.38 in 5.0 mi WNW 3.5 mph - 0.02 in Rain , Snow Light Snow
3:56 PM 37.0 °F 33.3 °F 33.1 °F 86% 29.39 in 6.0 mi East 4.6 mph - 0.03 in Rain , Snow Light Snow
3:58 PM 37.4 °F 32.8 °F 33.8 °F 87% 29.38 in 6.0 mi East 5.8 mph - 0.00 in Rain Light Rain
4:56 PM 37.9 °F 32.1 °F 33.1 °F 83% 29.38 in 9.0 mi NE 8.1 mph - 0.00 in Rain Light Rain
5:56 PM 36.0 °F 30.3 °F 33.1 °F 89% 29.37 in 9.0 mi East 6.9 mph - 0.06 in Rain Light Rain
6:56 PM 36.0 °F 33.3 °F 32.0 °F 86% 29.37 in 10.0 mi NE 3.5 mph - 0.02 in Rain Light Rain
7:56 PM 36.0 °F 33.3 °F 32.0 °F 86% 29.37 in 10.0 mi NE 3.5 mph - 0.00 in Rain Light Rain
8:32 PM 35.6 °F 31.7 °F 32.0 °F 87% 29.35 in 9.0 mi NE 4.6 mph - 0.00 in Rain Light Rain
8:56 PM 36.0 °F 29.6 °F 32.0 °F 86% 29.37 in 10.0 mi East 8.1 mph - 0.00 in Rain Light Rain
9:10 PM 35.6 °F 28.0 °F 32.0 °F 87% 29.36 in 10.0 mi East 10.4 mph - 0.00 in Rain Light Rain
9:56 PM 36.0 °F 30.3 °F 32.0 °F 86% 29.37 in 10.0 mi East 6.9 mph - 0.00 in   Overcast
10:43 PM 35.6 °F 32.8 °F 30.2 °F 81% 29.36 in 10.0 mi ENE 3.5 mph - 0.00 in Rain Light Rain
10:56 PM 36.0 °F 30.3 °F 30.9 °F 82% 29.38 in 10.0 mi East 6.9 mph - 0.00 in   Overcast
11:30 PM 35.6 °F 31.7 °F 32.0 °F 87% 29.36 in 10.0 mi ENE 4.6 mph - 0.00 in   Overcast
11:49 PM 35.6 °F 29.9 °F 32.0 °F 87% 29.36 in 10.0 mi ENE 6.9 mph - 0.00 in Rain Light Rain
11:56 PM 36.0 °F 31.1 °F 32.0 °F 86% 29.38 in 10.0 mi NE 5.8 mph - 0.00 in   Overcast